GSAT0217 (GALILEO 21) (43057 NORAD) Tracking and Keplerian Element Data

This shows tracking and keplerian element data for the satellite.

Feedback or suggestion? Click here.




ElementValue
Catalog43057
NameGSAT0217 (GALILEO 21)
Epoch Orbit3785
Epoch Day11.44202534
Epoch Year2024
RAAN245.9427
Inclination55.4148
Eccentricity0.000313
Argument of Perigee348.7227
Mean Anonmoly11.3736
Mean Motion1.70473955
Decay Rate7.3E-07
L11 43057U 17079C 24011.44202534 .00000073 00000+0 00000+0 0 9993
L22 43057 55.4148 245.9427 0003130 348.7227 11.3736 1.70473955 37856



Live tracking and technical data element details for GSAT0217 (GALILEO 21) (NORAD 43057). GSAT0217 (GALILEO 21) can be tracked NOW for your location showing map with azimuth and elevation plus other details from your city location.







IsCatalogInMostPopularTable: catalog: 43057, numindb: 728
Update: records affected: 1



GetName: 43057 GSAT0217 (GALILEO 21)

Hit Count: updated at: Fri, 19 Apr 2024 11:17:35 GMT